Location: Bonny Doon Airfield
(37.0704°N, 122.1252°W)
Time: 09:03:49
(UTC-08:00)

Tiangong 1 - Pass Details

Date: 15 October 2017
Orbit: 275 x 302 km, 42.8° (Epoch: 14 December)

Event Time Altitude Azimuth Distance (km) Brightness Sun altitude
Rises 20:06:46 0° 289° (WNW) 2,074 6.2 -19.8°
Reaches altitude 10° 20:08:51 10° 281° (WNW) 1,226 4.8 -20.2°
Enters shadow 20:10:58 34° 239° (WSW) 537 2.2 -20.7°
